SCP
0 0 0 0 0 0 0 0 0 0 0 0 0 0 0 0 0 0 0 0 0 0 0 0 0 0 0 0 0 0 0 0 0 0 0 1 1 1
0 0 0 0 0 0 0 0 0 0 0 0 0 0 0 0 0 0 0 0 0 0 0 0 0 0 0 0 0 0 0 0 0 0 0 1 1 1
1 0 0 0 0 0 0 0 0 0 0 0 0 0 0 0 0 0 0 0 0 0 0 0 0 0 0 0 0 0 0 0 0 0 0 0 0 0
1 0 0 0 0 0 0 0 0 0 0 0 0 0 0 0 0 0 0 0 0 0 0 0 0 0 0 0 0 0 0 0 0 0 0 0 0 0
1 1 0 0 0 0 0 0 0 0 0 0 0 0 0 0 0 0 0 0 0 0 0 0 0 0 0 0 0 0 0 0 0 0 0 0 0 0
1 0 0 0 0 0 0 0 0 0 0 0 0 0 0 0 0 0 0 0 0 0 0 0 0 0 0 0 0 0 0 0 0 0 0 0 0 0
0 0 0 0 0 0 0 0 0 0 0 0 0 0 0 0 0 0 0 0 0 0 0 0 0 0 0 0 0 0 0 0 0 0 0 0 0 0
0 0 0 0 0 0 0 0 0 0 0 0 0 0 0 0 0 0 0 0 0 0 0 0 0 0 0 0 0 0 0 0 0 0 0 0 0 0
0 0 0 0 0 0 0 0 0 0 0 0 0 0 0 0 0 0 0 0 0 0 0 0 0 0 0 0 0 0 0 0 0 0 0 0 0 0
0 0 0 0 0 0 0 0 0 0 0 0 0 0 0 0 0 0 0 0 0 0 0 0 0 0 0 0 0 0 0 0 0 0 0 0 0 0
0 0 0 0 0 0 0 0 0 0 0 0 0 0 0 0 0 0 0 0 0 0 0 0 0 0 0 0 0 0 0 0 0 0 0 0 0 0
0 0 0 0 0 0 0 0 0 0 0 0 0 0 0 0 0 0 0 0 0 0 0 0 0 0 0 0 0 0 0 0 0 0 0 0 0 0
0 0 0 0 0 0 0 0 0 0 0 0 0 0 0 0 0 0 0 0 0 0 0 0 0 0 0 0 0 0 0 0 0 0 0 0 0 0
0 0 0 0 0 0 0 0 0 0 0 0 0 0 0 0 0 0 0 0 0 0 0 0 0 0 0 0 0 0 0 0 0 0 0 0 0 0
0 0 0 0 0 0 0 0 0 0 0 0 0 0 0 0 0 0 0 0 0 0 0 0 0 0 0 0 0 0 0 0 0 0 0 0 0 0
0 0 0 0 0 0 0 0 0 0 0 0 0 0 0 0 0 0 0 0 0 0 0 0 0 0 0 0 0 0 0 0 0 0 0 0 0 0
0 0 0 0 0 0 0 0 0 0 0 0 0 0 0 0 0 0 0 0 0 0 0 0 0 0 0 0 0 0 0 0 0 0 0 0 0 0
0 0 0 0 0 0 0 0 0 0 0 0 0 0 0 0 0 0 0 0 0 0 0 0 0 0 0 0 0 0 0 0 0 0 0 0 0 0
0 0 0 0 0 0 0 0 0 0 0 0 0 0 0 0 0 0 0 0 0 0 0 0 0 0 0 0 0 0 0 0 0 0 0 0 0 0
0 0 0 0 0 0 0 0 0 0 0 0 0 0 0 0 0 0 0 0 0 0 0 0 0 0 0 0 0 0 0 0 0 0 0 0 0 0
0 0 0 0 0 0 0 0 0 0 0 0 0 0 0 0 0 0 0 0 0 0 0 0 0 0 0 0 0 0 0 0 0 0 0 0 0 0
0 0 0 0 0 0 0 0 0 0 0 0 0 0 0 0 0 0 0 0 0 0 0 0 0 0 0 0 0 0 0 0 0 0 0 0 0 0
0 0 0 0 0 0 0 0 0 0 0 0 0 0 0 0 0 0 0 0 0 0 0 0 0 0 0 0 0 0 0 0 0 0 0 0 0 0
Wind_Speed
2 1 1 0 0 1 1 2 2 1 0 0 0 1 1 1 1 1 2 4 4 4 3 3 3 4 4 5 5 5 4 4 4 4 4 4 4 4
1 2 2 1 1 1 1 1 1 2 1 0 0 1 1 1 2 2 2 3 3 3 3 3 3 3 4 4 4 4 4 4 4 4 4 4 3 3
3 2 2 2 1 1 1 1 1 1 2 0 1 1 1 2 2 2 1 1 1 2 2 2 3 3 3 4 4 4 4 4 4 4 4 3 3 3
3 3 3 2 2 1 1 1 1 1 3 2 1 1 1 1 2 2 1 1 1 2 2 2 2 3 3 3 3 3 3 3 3 4 4 4 4 4
3 3 2 2 2 1 1 1 1 2 2 3 1 1 1 1 2 2 2 1 1 1 1 2 2 2 2 2 2 3 3 3 3 4 4 5 5 5
4 3 3 2 1 1 1 1 2 2 3 3 2 2 1 1 2 1 1 1 1 1 2 1 1 1 2 3 3 3 4 4 4 5 5 5 5 5
4 4 4 3 3 1 0 1 2 2 3 3 2 2 1 1 1 1 1 1 1 1 1 1 0 0 1 2 3 4 4 5 5 6 6 6 6 6
5 5 4 5 5 5 3 3 3 4 3 2 2 2 2 2 2 1 1 1 1 1 0 1 0 1 1 2 3 4 4 4 5 5 6 6 6 6
4 4 4 5 6 4 5 6 5 4 3 3 4 3 3 2 2 2 1 1 0 0 0 1 0 1 2 2 4 4 5 5 5 5 6 6 7 7
5 4 4 5 5 5 5 5 5 4 3 2 3 2 2 2 2 2 2 1 1 0 1 1 1 1 2 2 3 4 5 6 6 7 7 7 8 8
6 6 5 5 7 6 6 5 5 5 5 5 3 2 2 3 4 3 2 1 0 1 1 1 1 1 2 2 3 5 6 7 7 8 8 9 8 7
5 5 7 7 7 7 5 4 5 4 4 4 4 4 2 1 3 3 3 2 1 1 2 2 1 1 2 2 2 3 4 6 7 9 9 10 8 5
4 4 5 8 8 7 5 3 2 2 2 3 3 3 2 2 1 1 2 2 2 2 2 2 1 1 2 2 2 3 3 3 3 4 7 9 9 8
2 3 4 7 7 6 4 4 4 3 2 2 2 2 2 2 2 1 1 2 3 4 3 3 2 2 2 2 3 3 3 3 3 4 4 5 7 9
2 3 5 5 5 4 6 6 4 3 2 2 2 1 1 2 2 1 1 0 2 3 3 4 4 2 2 3 3 3 3 4 3 4 4 4 4 4
3 4 5 5 4 3 3 4 3 2 1 1 1 1 1 1 1 1 1 1 2 2 1 2 4 4 3 4 4 4 4 4 3 4 4 5 5 6
2 2 3 3 4 3 3 2 2 1 1 1 1 1 2 2 2 1 1 1 1 2 3 2 2 3 5 4 4 5 5 4 5 4 3 5 6 6
2 2 2 2 2 3 3 3 2 2 1 1 1 1 2 2 2 2 1 1 2 3 3 3 3 2 2 4 7 6 5 5 5 4 4 5 7 6
1 1 1 2 2 2 2 2 2 2 2 1 1 2 2 2 2 3 2 2 3 3 4 3 2 2 4 6 4 6 6 5 5 5 5 5 7 7
1 2 2 2 2 3 3 2 3 3 2 2 2 2 2 2 3 3 3 3 4 4 4 4 3 3 4 5 6 5 6 7 5 6 6 5 6 8
2 3 3 3 3 3 3 3 3 3 3 3 3 3 3 2 3 4 4 4 4 4 5 6 5 5 4 3 5 6 6 7 8 7 7 7 7 7
4 4 4 4 3 3 3 3 3 3 3 3 3 3 3 3 4 5 4 4 4 5 6 6 6 4 3 5 7 8 8 8 7 11 13 10 6 7
5 4 4 4 4 3 3 3 4 4 3 4 4 4 3 3 4 4 4 5 5 6 6 6 5 4 5 6 7 8 11 10 8 7 8 9 14 17
Wind_Direction
359 10 19 345 104 156 163 177 165 173 228 280 355 5 25 40 73 85 97 101 98 96 101 109 117 116 124 124 134 141 142 142 154 161 161 165 182 192
4 27 27 11 23 85 144 160 168 163 174 156 0 17 29 59 77 79 97 102 96 99 112 121 126 127 131 135 143 147 155 162 172 172 178 184 191 207
14 26 24 20 29 25 71 102 120 138 153 92 41 59 70 73 59 56 73 77 90 95 113 135 145 147 152 156 156 161 167 179 187 189 195 200 209 226
11 21 20 24 26 21 47 76 118 141 146 142 90 66 76 99 79 61 49 64 71 90 106 131 153 153 156 160 171 181 175 178 190 197 201 211 223 231
9 14 15 32 25 17 45 82 103 116 127 136 122 85 77 103 90 68 51 28 31 101 133 142 149 159 169 179 188 199 204 203 204 205 213 225 230 233
13 12 9 18 17 16 58 106 109 105 113 122 120 106 85 79 97 85 57 22 18 43 67 88 123 168 196 213 213 213 216 217 218 220 225 230 233 234
14 13 14 24 31 30 100 143 132 123 125 128 130 123 121 120 108 87 86 40 20 33 44 36 67 246 246 232 230 223 223 224 226 229 232 233 233 232
13 10 15 29 28 29 47 101 141 150 148 142 147 153 163 153 128 123 111 67 16 30 24 337 45 258 256 246 233 233 232 234 236 232 231 234 235 231
23 18 21 21 25 36 51 61 66 86 146 159 160 168 168 172 148 134 131 108 246 250 123 295 297 265 260 250 242 246 247 245 246 245 241 239 239 238
25 24 26 21 27 39 56 57 51 49 63 120 158 168 169 174 167 154 142 109 313 260 201 248 285 283 292 272 252 246 247 248 247 246 245 244 242 242
26 29 29 33 27 43 62 62 53 42 52 66 88 119 156 182 170 142 138 121 356 305 195 228 260 289 289 277 268 258 257 255 251 249 248 248 246 243
20 22 28 30 26 36 55 63 53 32 31 39 50 53 73 103 170 181 178 172 193 251 199 203 232 265 284 269 273 271 265 262 258 254 251 250 245 239
22 13 10 14 21 32 46 63 58 33 37 42 41 36 38 43 44 176 194 199 210 241 206 189 218 226 251 285 284 274 270 265 262 255 250 247 240 226
19 359 355 5 15 26 39 47 52 55 54 48 45 31 22 9 357 340 223 219 234 248 238 208 226 224 239 274 284 282 277 262 253 259 263 255 248 237
353 347 351 6 18 27 29 31 42 53 52 44 26 3 334 319 325 333 342 266 251 245 232 211 214 222 225 246 265 270 284 282 260 256 263 260 258 249
355 358 7 24 34 32 22 24 30 30 41 18 329 322 317 321 332 340 338 347 344 322 298 221 218 216 235 242 249 265 267 270 274 270 271 271 261 248
345 9 17 12 13 10 9 9 12 17 11 354 342 337 335 334 331 338 326 330 317 312 318 316 261 235 239 250 262 265 268 268 265 269 266 274 271 261
50 28 3 352 350 344 341 343 346 347 338 325 326 327 330 331 329 330 318 305 303 301 301 305 313 308 274 243 227 257 269 268 271 265 255 268 281 276
59 333 317 314 316 316 311 310 310 307 300 300 305 310 312 311 310 312 312 306 298 296 296 298 295 292 300 304 283 222 241 273 277 276 265 258 273 280
265 278 284 288 290 292 292 290 292 299 292 288 287 287 288 290 293 295 297 295 298 299 299 295 279 265 268 289 295 287 242 249 264 273 279 276 272 274
275 270 268 272 277 278 278 276 277 281 283 283 283 281 278 274 279 284 287 287 284 287 291 292 288 273 265 266 275 282 279 244 236 255 274 283 288 290
266 267 269 267 268 271 273 273 274 275 276 271 273 273 270 264 271 281 285 286 284 281 283 287 293 285 259 266 283 292 296 296 273 245 243 243 263 277
256 258 262 265 262 260 262 266 268 270 268 267 270 271 270 269 270 272 276 279 282 285 288 292 296 288 281 280 285 290 293 298 301 299 286 258 242 250